Theta_e
317 317 317 317 317 318 318 318 318 318 317 317 317 317 317 317 318 317 317 317 318 318 319 319 319 320 320 321 321 321 319 317 316 315 314 317 319 330 327 326 328 326 329 312 311 311 308 308 307 310 309 307 307 306 309 309 310 308 301 298 297 300 299 303 302 304 306 302 304 305 305 304 302 306 306 308 306 306 306 306 308 309 309 310 315 333 332 336
318 318 317 317 318 318 318 318 318 317 317 317 317 317 317 317 317 317 317 318 318 319 319 319 320 320 321 321 321 320 319 320 315 313 315 324 328 329 330 329 327 329 324 309 308 309 306 305 307 309 307 304 309 305 309 305 310 303 301 300 296 300 303 307 306 305 304 302 304 304 306 304 303 304 306 303 303 304 303 305 307 307 308 315 320 329 333 336
318 318 318 318 318 318 318 318 318 317 317 317 317 317 317 318 318 318 318 318 318 319 319 320 320 320 321 320 321 319 320 319 316 310 319 327 330 330 329 328 330 328 312 308 310 311 308 308 308 307 306 304 306 303 306 304 307 305 301 298 299 303 304 306 306 306 305 305 304 303 304 303 304 305 307 302 302 303 302 302 304 305 306 319 325 331 332 334
317 317 318 318 318 318 318 318 318 318 317 317 317 318 318 318 318 318 318 319 319 319 320 320 320 320 321 320 319 321 318 318 310 315 317 330 329 329 330 326 331 326 312 310 312 313 312 311 310 308 305 302 305 306 302 305 303 305 301 298 301 305 302 305 307 306 306 305 304 303 305 303 304 305 304 303 301 301 303 304 304 303 305 310 326 332 335 334
317 317 317 317 318 318 318 318 318 318 317 317 318 318 318 318 318 318 318 319 319 320 320 320 320 321 321 321 317 321 318 306 307 315 324 330 331 331 328 331 328 315 311 312 314 313 312 311 309 307 304 301 304 304 303 306 307 304 301 303 303 305 303 305 305 306 305 305 304 304 302 302 306 305 303 302 299 299 302 305 306 306 306 308 323 328 331 330
317 317 317 317 318 318 318 318 318 318 318 318 318 318 318 318 318 318 319 319 320 320 320 321 321 321 321 318 321 318 313 297 312 315 330 332 331 331 331 329 328 320 313 312 311 311 309 309 308 303 302 302 302 300 303 305 307 298 303 303 304 306 303 306 305 305 305 304 302 302 304 305 304 303 304 304 302 303 307 307 307 307 308 323 323 327 327 328
317 317 317 318 318 318 318 318 318 318 318 318 318 318 318 318 318 318 319 319 320 321 321 321 321 321 321 319 318 314 309 311 314 319 330 332 333 331 331 332 332 311 312 311 311 309 307 307 306 302 302 302 303 303 304 304 306 303 300 304 304 305 304 306 305 305 304 303 302 305 306 303 303 299 304 303 305 306 307 308 307 308 311 326 329 329 325 327
317 317 317 318 318 318 318 318 317 317 318 318 318 318 318 318 318 319 319 320 320 320 321 321 321 321 320 316 312 312 313 311 311 320 331 330 327 325 325 312 311 311 310 310 310 308 308 306 303 305 302 301 303 303 304 303 304 301 300 303 304 305 305 306 304 304 304 304 304 304 302 302 303 302 304 303 305 306 307 308 308 309 312 322 327 328 329 330
317 317 317 317 317 317 317 317 317 317 317 317 318 318 317 318 318 319 319 319 320 320 321 321 321 321 318 317 309 306 306 311 314 317 323 317 314 313 312 310 312 310 310 311 311 310 308 306 306 306 301 302 305 302 304 302 299 303 302 303 304 304 305 305 304 304 304 304 304 302 301 303 303 305 302 303 305 306 307 307 307 309 309 319 322 328 329 330
317 317 317 317 317 317 317 317 317 317 317 317 317 317 317 317 318 318 318 319 320 320 320 321 321 320 317 313 311 305 308 314 314 316 314 313 313 311 311 312 311 310 309 310 310 309 307 307 306 308 306 304 305 302 305 302 300 304 303 303 303 303 303 304 303 304 304 303 304 301 300 301 304 303 298 306 306 307 306 306 308 309 310 317 319 327 327 329
317 317 317 317 317 317 316 316 317 317 317 317 317 317 317 317 317 317 318 319 319 320 321 321 321 319 312 312 306 304 314 314 315 314 314 313 312 310 311 312 313 310 310 310 308 309 309 309 308 308 306 302 304 302 303 302 305 303 303 303 303 303 304 304 303 303 304 302 304 303 301 302 303 303 299 303 306 307 306 305 306 307 309 315 318 326 327 328
317 317 317 317 317 316 316 316 316 317 317 317 316 316 316 316 316 317 317 318 319 320 321 321 320 318 313 310 308 308 316 316 316 315 314 313 311 311 313 314 314 311 311 308 307 310 310 309 309 306 300 305 299 303 302 305 304 303 303 298 300 301 300 302 301 302 303 301 304 304 300 299 300 299 303 305 307 307 306 305 306 306 310 315 318 321 326 326
316 316 316 316 316 316 316 316 316 316 316 316 316 316 316 316 316 317 317 318 320 320 321 321 320 318 313 307 311 316 318 318 316 315 314 314 314 314 315 314 313 313 313 310 310 311 310 310 308 304 306 304 302 298 303 305 303 303 302 299 298 298 297 301 303 303 302 303 304 303 291 295 299 302 304 306 306 307 305 305 306 307 310 314 316 320 325 326
316 316 316 316 316 316 315 316 316 316 315 315 315 315 315 316 317 318 318 318 321 321 321 321 321 314 310 308 316 318 319 319 317 314 313 314 313 312 313 314 314 313 314 312 312 312 310 310 309 306 308 304 301 308 303 302 303 297 300 300 295 294 294 301 302 302 300 304 303 303 292 295 300 302 305 307 306 305 304 305 306 308 311 315 317 319 322 324
316 316 316 316 316 315 315 316 316 315 315 315 315 315 315 316 318 318 318 318 319 320 320 320 320 311 307 309 318 320 341 319 314 314 315 312 311 311 311 313 312 312 313 312 311 312 311 310 308 304 302 307 306 302 299 299 300 299 295 292 296 294 295 301 303 302 298 302 304 301 293 295 299 302 305 306 306 306 304 306 307 309 310 313 315 319 321 325
316 316 316 315 315 315 315 315 315 315 315 315 314 314 315 317 319 318 318 320 319 319 321 317 314 312 308 306 311 329 316 311 311 315 315 314 312 310 312 311 312 312 312 311 312 312 311 309 303 304 303 304 301 298 297 296 296 298 295 293 293 295 296 298 301 303 303 302 303 300 294 297 299 303 305 306 306 305 305 307 308 308 309 313 314 319 322 322
316 316 315 315 314 314 315 315 314 314 314 314 313 314 317 317 318 317 319 318 321 320 317 311 318 318 305 314 318 311 310 313 317 315 314 316 314 313 312 311 309 310 311 310 310 309 309 304 305 304 304 299 301 299 293 292 292 294 297 293 296 295 296 294 300 303 303 302 299 301 297 298 300 303 304 305 306 305 305 308 308 310 311 313 314 319 320 321
315 315 315 314 314 314 314 314 314 314 313 313 312 314 315 318 317 316 318 317 320 318 314 317 315 311 307 315 307 308 314 313 315 315 315 316 316 314 313 310 310 309 309 306 309 304 307 301 303 297 299 299 299 298 292 288 292 293 295 294 294 297 297 297 296 300 303 302 299 300 299 298 300 303 304 305 305 305 305 306 308 308 309 311 312 317 318 318
315 315 314 314 314 314 314 314 314 314 313 312 313 313 315 311 318 318 317 313 313 310 307 309 309 300 298 307 312 312 314 315 316 315 312 314 314 315 314 313 311 307 303 302 303 303 304 301 302 297 294 296 296 296 295 296 297 296 298 297 297 294 296 296 300 303 303 299 298 299 297 298 300 301 303 306 307 304 304 307 308 308 309 312 313 315 315 315
314 314 314 314 314 314 314 314 314 313 312 313 323 321 321 321 317 315 317 317 312 312 311 311 311 310 311 311 309 315 317 316 311 311 313 314 313 311 310 310 308 307 304 299 302 302 304 296 295 295 296 298 300 300 299 299 299 299 298 297 297 298 297 301 302 302 304 300 299 300 300 299 301 302 303 305 305 305 305 305 305 307 307 310 310 314 316 320
314 314 314 314 314 314 313 313 313 312 311 314 318 320 310 310 305 305 309 311 315 316 313 311 310 310 309 312 314 312 308 310 312 310 312 316 313 309 306 307 304 300 302 303 301 306 303 296 296 299 300 301 301 302 301 300 299 298 296 297 297 298 296 301 300 302 303 300 298 300 299 299 300 301 303 306 304 303 304 305 306 307 308 309 312 317 318 320
314 314 314 314 314 313 313 313 312 312 310 315 319 318 317 315 316 319 313 304 312 314 313 311 312 309 313 314 316 316 312 308 306 310 314 314 310 304 305 304 302 299 303 303 302 301 297 296 299 301 303 303 302 303 302 300 298 298 296 296 296 297 299 301 301 303 303 300 298 300 297 298 300 302 303 304 304 306 307 307 308 308 307 309 310 317 319 319
314 313 313 313 313 313 312 312 311 308 317 323 320 319 316 318 322 321 317 310 307 314 312 311 309 308 309 313 315 316 308 305 304 308 310 311 308 306 305 302 302 301 302 302 297 298 295 298 302 304 303 301 301 303 301 300 299 297 296 295 293 296 295 293 299 301 303 301 299 300 298 299 301 303 303 305 304 306 307 307 307 310 307 308 311 317 318 318
313 313 313 313 313 313 312 310 309 316 317 317 317 315 319 320 321 320 314 305 304 309 310 312 312 311 309 307 314 312 308 308 308 307 313 310 304 308 305 303 301 301 299 301 300 298 297 301 305 304 304 302 300 300 299 297 295 297 296 295 294 295 296 296 297 301 302 303 302 301 298 297 299 298 300 305 306 305 306 306 307 308 308 309 311 319 320 318
313 313 313 313 313 312 311 309 315 321 314 315 318 319 319 321 323 321 312 309 309 305 312 310 313 311 313 318 316 309 309 309 309 312 312 311 307 306 304 307 304 298 300 302 301 300 300 303 304 302 301 301 300 298 298 297 294 295 297 297 296 297 297 299 300 299 297 296 300 299 291 292 299 300 299 302 304 303 306 305 305 307 308 308 309 316 317 320
313 313 313 313 313 311 309 321 318 317 315 315 318 318 319 321 324 321 315 303 296 302 307 300 312 304 316 310 313 310 311 304 311 312 313 313 314 307 305 302 304 297 300 301 300 300 300 304 303 300 300 299 299 298 299 299 295 294 295 300 299 298 298 298 297 297 292 290 298 301 291 289 298 298 300 302 302 302 305 305 305 306 306 307 309 319 318 317
313 312 312 312 312 310 318 315 319 320 315 315 320 319 320 323 327 323 309 297 291 302 302 307 309 305 312 311 311 312 296 300 312 313 311 313 307 312 302 301 303 304 303 303 299 296 302 302 301 301 300 298 297 295 299 299 295 294 301 301 301 300 298 298 297 296 294 298 299 299 296 291 290 297 301 302 302 302 303 304 305 306 307 307 308 313 317 316
312 312 312 311 311 310 315 318 322 315 312 317 319 320 322 326 325 324 308 286 287 308 302 306 309 316 312 311 312 306 305 309 302 308 311 312 310 307 303 300 300 301 303 301 291 299 302 300 301 299 300 298 297 298 300 301 297 296 300 301 300 300 299 299 298 296 297 295 291 295 299 292 291 296 302 303 299 300 301 303 304 306 307 308 309 310 316 315
312 312 311 311 310 310 316 321 324 315 319 323 324 323 324 327 321 310 298 286 301 303 316 302 318 312 311 311 308 308 306 308 301 306 311 312 312 307 300 303 303 302 304 303 296 300 303 302 302 301 298 296 300 301 301 301 297 300 302 303 302 301 300 299 296 295 295 293 289 293 296 289 290 296 297 301 299 299 301 303 305 306 307 308 309 310 314 316
311 311 311 310 314 327 328 331 328 321 324 325 326 325 327 324 315 300 290 284 306 296 305 307 309 303 307 302 304 307 303 305 307 308 309 306 308 309 306 309 303 302 300 303 302 302 303 307 307 302 299 301 301 302 302 301 301 303 302 299 299 299 297 298 297 296 293 287 289 294 296 294 287 294 296 296 300 301 302 304 305 306 307 308 310 310 314 315
311 310 310 310 318 322 322 321 319 322 325 327 327 326 323 317 302 292 286 295 305 303 308 307 304 308 304 301 300 304 305 305 304 306 303 306 305 306 305 302 306 300 299 299 298 301 303 304 302 303 306 304 304 300 302 302 302 300 297 295 294 294 296 294 293 295 287 285 292 296 295 296 286 292 298 301 304 303 303 303 304 305 306 307 309 309 313 315
310 309 310 311 317 318 318 317 320 325 326 328 328 320 314 295 304 289 288 307 293 301 302 302 307 305 303 306 302 302 301 304 307 305 304 301 301 300 300 296 301 293 293 295 294 300 298 299 303 303 308 304 300 298 298 300 301 299 297 295 289 287 288 284 289 285 286 285 292 296 297 293 292 296 299 302 303 304 305 305 305 305 305 308 308 310 312 315
308 308 308 312 315 320 324 324 324 328 329 325 320 317 307 295 286 296 297 301 295 305 303 307 304 305 304 302 301 303 306 299 306 305 305 304 301 302 303 302 302 298 288 296 295 294 296 302 302 302 303 305 302 294 294 293 296 296 294 292 288 284 282 281 284 287 288 292 296 295 298 291 295 299 303 302 304 305 306 307 307 306 308 309 308 310 312 315
308 308 315 324 327 325 325 330 329 328 324 324 317 310 303 290 289 303 299 301 300 307 306 303 304 305 304 300 302 305 300 304 304 303 305 301 301 300 302 303 303 300 299 297 292 294 288 291 298 299 295 303 301 299 298 297 297 296 299 295 291 289 285 281 284 282 284 287 292 297 292 288 290 295 303 303 305 306 306 306 307 308 308 310 310 311 313 313
306 312 322 327 326 328 330 330 330 327 327 318 312 305 291 292 298 296 298 300 303 305 303 306 303 301 302 303 305 304 302 298 306 303 302 300 300 300 299 300 302 301 299 292 296 295 293 293 300 304 303 304 300 303 303 299 298 299 299 299 293 290 295 285 288 288 288 287 287 291 290 296 295 303 304 304 305 305 306 306 307 307 307 309 309 310 312 313
313 329 329 326 329 322 324 323 326 325 321 312 306 295 293 297 295 302 299 306 305 301 302 303 302 299 301 299 305 302 306 300 302 302 300 303 302 300 303 303 301 302 298 293 297 291 294 292 301 302 304 302 302 304 302 303 289 296 296 291 294 300 297 290 290 294 293 289 285 292 292 296 302 302 303 303 304 304 305 305 305 306 306 310 308 309 310 313
324 327 322 320 318 321 323 323 322 323 317 310 300 294 302 302 304 304 305 303 304 304 303 295 297 296 296 296 298 300 302 303 301 300 296 301 299 303 301 302 305 303 303 300 296 301 291 292 300 299 298 303 305 305 304 304 303 298 292 296 301 302 299 292 285 287 286 284 286 292 290 292 293 288 301 300 301 302 303 304 305 306 307 306 308 311 311 311
322 325 322 316 317 321 322 324 323 321 314 309 296 301 305 301 306 306 307 306 305 305 301 297 298 301 296 296 296 298 301 297 298 299 296 300 296 305 302 300 305 304 304 306 298 298 299 290 296 301 301 303 306 304 301 303 305 298 296 303 294 288 287 293 289 282 282 282 284 289 292 292 293 292 297 297 298 299 301 303 304 304 305 306 307 309 310 312
322 321 315 315 320 320 321 326 322 315 312 306 300 296 303 303 306 305 307 306 308 304 299 300 298 301 300 297 298 300 300 295 298 297 294 300 294 303 302 303 301 306 305 305 300 300 301 290 292 301 300 303 303 301 291 296 302 303 303 299 302 296 292 289 288 290 288 283 284 286 291 285 294 296 298 297 299 301 301 302 303 304 305 306 307 307 308 310
320 318 309 319 319 324 325 324 319 315 309 298 301 301 306 303 305 308 308 306 304 301 301 300 302 298 300 300 300 297 300 299 298 298 298 300 297 304 302 306 303 305 306 306 302 304 294 300 287 296 303 301 294 298 294 296 295 297 296 295 296 296 300 296 295 291 288 285 285 284 283 289 297 301 300 299 300 301 301 302 304 305 306 307 308 309 311 310
323 315 311 320 321 324 324 320 312 306 303 305 305 304 305 303 307 307 308 308 307 310 304 302 301 298 300 299 299 301 299 299 299 297 298 299 299 293 305 304 305 304 306 304 302 302 294 296 289 294 295 294 296 302 301 300 300 298 297 295 296 292 291 287 285 295 292 288 285 285 283 292 298 303 303 301 304 303 303 303 304 304 305 308 308 311 312 311
316 307 308 319 325 323 317 309 305 308 306 301 300 303 301 309 306 304 306 306 307 303 310 304 304 302 301 300 300 300 299 298 298 298 299 297 301 301 304 307 307 307 302 297 299 305 302 300 295 290 294 295 299 303 304 303 303 302 302 297 300 298 296 290 285 288 293 292 294 291 287 289 302 306 303 303 302 304 304 304 305 305 306 307 308 309 312 316
312 307 316 321 325 320 314 305 306 300 303 304 307 306 307 306 305 304 305 305 305 306 305 304 302 301 302 301 301 300 300 297 298 297 299 300 300 303 305 305 307 305 303 301 303 304 304 296 292 293 297 300 301 303 304 305 306 299 300 303 301 296 296 293 293 295 289 291 289 288 285 290 304 307 304 305 305 305 305 304 304 306 307 308 308 309 310 313
312 311 311 320 325 321 310 296 297 299 302 305 305 304 306 305 304 303 303 304 303 304 302 303 304 305 301 305 302 298 301 292 299 299 298 300 298 306 307 306 306 303 301 300 297 304 293 297 294 288 288 291 294 298 299 302 302 298 296 300 300 299 299 298 297 298 286 290 291 288 283 289 300 305 304 304 304 304 304 306 306 305 308 309 308 309 310 313
316 315 313 314 321 318 307 308 304 300 303 303 304 302 304 305 305 304 304 304 306 305 304 302 303 304 302 304 301 302 302 299 296 301 300 300 300 307 307 307 306 302 305 308 305 306 296 295 292 286 283 280 281 283 285 287 291 296 297 298 299 298 296 294 288 291 286 291 293 288 288 296 302 303 302 302 302 303 305 305 306 306 308 308 309 308 310 312
310 298 310 311 314 313 311 313 309 306 303 303 295 303 304 302 304 305 305 305 304 306 305 305 305 305 302 301 299 299 298 302 298 297 298 298 300 302 304 305 303 303 308 307 305 304 295 298 295 293 289 287 289 293 296 295 294 291 294 296 297 298 299 296 295 290 286 290 289 292 293 295 296 299 300 301 303 302 302 304 304 305 307 309 310 310 310 311
315 304 303 301 312 310 308 309 308 306 302 306 297 304 301 301 302 305 305 301 305 304 305 305 303 301 299 300 298 297 299 298 301 299 299 298 301 301 304 303 304 308 307 304 305 303 298 293 295 295 294 294 296 295 297 298 294 295 294 294 297 297 298 294 289 287 296 290 286 295 296 294 296 298 300 301 302 303 304 304 304 305 307 307 308 309 311 309
304 307 312 314 307 298 302 300 308 305 307 308 302 304 301 300 300 297 303 305 305 307 300 302 303 302 301 299 299 293 297 297 298 295 300 299 299 301 299 303 302 306 305 303 306 302 295 290 296 295 295 296 297 298 299 298 297 297 296 296 295 297 297 294 294 296 296 289 287 294 297 295 297 299 301 300 303 304 305 305 306 307 306 307 308 307 307 308
311 309 308 312 305 306 304 306 309 307 304 303 302 303 301 300 299 301 300 301 302 302 304 292 298 301 301 301 299 295 297 292 291 298 297 297 297 297 296 299 302 305 303 302 302 304 297 293 296 296 294 295 296 297 297 296 296 297 296 297 297 297 296 296 296 297 297 295 296 295 296 296 299 301 302 304 307 306 307 307 307 305 305 306 306 307 307 307
308 309 307 312 311 308 308 309 308 307 303 303 297 303 302 301 300 302 303 300 294 299 304 299 299 301 301 301 300 296 298 298 298 294 299 298 297 298 297 297 297 301 302 299 301 302 297 290 296 296 292 293 296 297 297 297 296 294 296 296 296 297 296 297 297 297 297 295 297 297 296 294 300 305 304 305 306 307 306 305 304 306 306 306 306 307 307 307
315 316 315 310 306 304 308 308 306 304 300 303 301 302 302 302 300 302 300 304 302 299 301 298 300 300 302 301 300 299 302 301 300 300 301 299 294 300 296 297 300 296 299 298 299 299 299 292 297 294 288 289 295 295 295 296 296 295 294 295 296 295 294 296 293 296 294 293 295 295 293 294 301 302 304 304 304 304 304 304 305 306 305 305 305 305 305 307
320 318 318 312 304 301 304 307 305 304 299 305 305 304 302 302 304 302 296 303 304 304 303 302 302 300 299 299 299 300 302 302 302 303 303 303 303 302 302 301 301 298 297 297 299 296 298 294 290 291 287 287 293 295 294 295 293 289 291 295 296 296 296 297 298 299 299 298 293 289 292 300 301 302 299 301 303 303 304 304 305 305 307 307 306 308 310 307
Wind_Speed
18 17 17 17 17 16 16 16 16 15 15 14 13 13 12 11 10 10 10 11 11 11 12 12 12 12 12 12 13 13 13 9 12 11 12 8 10 8 12 12 9 9 5 6 9 10 10 10 11 10 9 8 8 10 10 11 9 8 8 8 9 9 10 8 13 8 3 3 5 7 7 4 8 4 7 4 6 7 5 6 4 6 11 4 8 20 17 17
18 18 18 18 18 17 17 17 17 16 16 14 14 13 12 11 11 10 10 10 11 12 12 12 12 12 12 12 12 10 10 12 12 13 13 10 13 12 10 11 10 9 8 9 11 10 9 9 10 10 10 9 8 10 9 9 9 9 7 8 10 9 9 11 8 13 6 7 9 6 4 4 7 5 4 5 4 7 6 6 4 5 3 10 13 19 18 19
19 18 18 18 19 18 17 17 17 16 16 16 15 14 12 12 11 11 10 11 11 11 12 12 12 12 11 11 10 10 9 10 13 16 6 7 13 12 13 12 10 9 11 11 11 10 9 9 9 11 9 10 9 10 11 10 10 10 9 9 11 12 15 9 10 5 3 7 6 6 6 3 5 4 6 6 7 7 7 4 7 5 10 17 17 18 18 17
19 19 19 19 19 19 19 18 17 17 16 15 15 14 13 12 12 11 11 11 11 12 12 12 12 11 11 10 8 9 9 10 12 3 12 5 10 11 11 11 10 9 9 12 13 10 10 9 8 10 9 10 9 11 11 7 7 8 10 10 11 7 9 10 6 7 3 5 8 3 4 4 5 7 4 6 7 7 2 13 7 10 10 11 20 16 16 15
20 19 19 19 19 19 20 20 18 18 18 17 15 15 14 13 12 12 12 11 12 12 12 12 11 11 10 9 10 7 8 9 6 10 8 8 8 9 9 8 8 9 11 11 12 10 10 8 7 8 10 8 10 8 9 9 9 7 11 14 15 9 12 8 5 4 2 5 5 6 6 8 4 1 5 6 8 6 10 9 11 7 7 10 17 17 16 17
20 20 20 20 20 20 20 20 19 18 18 16 15 15 15 13 12 12 12 12 11 12 12 11 11 11 10 7 7 8 6 2 6 8 8 7 8 8 7 7 6 8 10 12 11 7 7 9 8 8 8 10 10 8 8 11 10 9 10 13 13 9 10 6 3 2 2 5 6 7 8 8 7 7 6 6 7 8 9 9 8 7 6 16 14 16 18 17
20 20 20 21 20 21 20 20 20 18 18 18 17 16 15 14 12 12 12 12 12 11 11 11 10 10 10 8 9 6 9 11 6 6 11 7 7 7 7 6 4 7 10 11 11 8 7 9 8 9 9 9 12 9 10 11 11 10 9 7 11 5 11 2 4 6 2 7 8 5 9 5 5 11 2 4 2 5 8 7 7 5 5 17 18 17 18 16
21 21 21 20 21 21 21 20 20 19 18 18 18 17 15 14 13 12 11 12 12 11 11 10 9 8 7 9 7 8 10 9 10 11 8 10 8 7 6 7 8 9 10 12 9 8 6 9 9 9 9 9 5 8 10 12 10 10 11 12 11 9 8 9 1 1 4 7 6 7 8 8 6 9 8 8 4 1 6 6 5 3 4 16 18 17 16 15
21 21 22 21 20 21 21 21 20 20 19 18 17 17 16 14 13 12 11 11 11 11 10 10 8 6 3 5 8 11 3 12 11 13 12 12 10 9 8 8 10 10 10 9 10 9 7 6 10 9 8 9 7 10 6 4 8 9 13 10 4 5 5 8 6 8 4 4 6 8 9 10 10 9 11 9 8 9 3 4 5 1 7 14 15 16 14 13
21 22 22 22 21 21 21 21 20 19 19 18 18 18 16 15 14 13 12 11 11 11 11 10 6 6 7 7 9 10 8 11 13 12 14 12 12 10 11 10 11 11 10 7 6 8 9 6 8 5 9 12 9 8 4 9 7 6 12 8 6 4 7 8 11 8 8 7 9 10 9 10 10 7 8 6 8 4 1 7 9 3 3 11 11 15 12 12
22 22 21 21 21 21 22 22 21 20 19 19 19 18 18 16 15 13 12 11 10 10 11 10 2 5 9 8 10 5 12 13 10 10 13 11 11 10 10 11 10 9 10 7 7 9 8 6 10 2 4 7 1 9 6 6 11 7 8 8 9 11 9 6 8 9 7 9 10 10 11 9 12 8 8 3 7 5 4 5 8 4 6 7 13 16 13 12
21 21 21 21 21 22 22 22 22 21 20 20 19 19 17 16 14 13 12 11 11 11 11 9 3 4 9 12 9 3 10 9 9 9 8 10 9 10 9 9 9 10 7 3 6 6 2 8 8 9 2 6 7 5 6 4 4 6 5 9 8 9 11 10 11 9 8 9 8 9 11 12 11 10 8 4 9 6 3 7 7 1 3 10 11 12 14 12
21 22 22 22 22 23 23 23 22 22 20 20 19 18 17 15 13 12 11 10 11 13 11 7 4 5 8 9 8 4 9 6 9 10 7 7 7 9 7 4 6 7 9 10 7 7 4 4 7 10 10 8 9 4 9 4 7 8 7 6 9 11 12 14 12 12 11 7 4 1 9 9 13 12 13 11 5 6 4 6 6 5 4 6 7 14 15 11
22 21 22 22 22 23 23 23 22 22 21 20 19 18 17 16 12 10 8 11 7 5 7 3 4 7 7 9 7 4 8 7 8 9 8 7 9 8 3 4 6 6 5 9 6 8 2 5 10 11 10 11 7 7 10 6 5 7 9 8 8 8 11 15 12 13 11 6 5 9 10 9 10 15 8 9 3 4 5 7 4 5 8 9 7 14 13 10
22 23 22 23 22 23 23 23 22 22 21 20 19 17 17 14 11 8 7 7 10 9 6 5 6 5 6 7 8 10 7 3 6 8 8 9 8 8 7 6 8 6 7 7 6 5 5 8 7 8 8 8 10 7 6 8 8 8 8 9 9 11 11 13 15 14 12 9 10 10 11 11 14 13 13 8 6 8 8 3 6 2 3 6 6 14 14 12
23 23 23 23 23 24 24 23 22 20 19 19 18 18 17 11 8 5 6 7 6 5 6 7 8 8 8 10 5 7 8 9 9 8 8 10 8 10 8 8 5 8 7 6 4 6 3 6 9 7 10 8 9 7 8 6 8 9 9 8 10 11 5 11 17 16 16 7 12 10 9 11 5 15 12 10 8 6 6 3 5 3 5 6 8 14 14 13
23 23 24 23 22 24 24 23 22 21 18 17 19 16 12 5 5 3 2 5 5 5 6 6 6 8 7 4 4 9 7 8 7 8 10 8 10 10 11 7 6 7 5 8 7 6 6 6 5 8 8 9 8 8 8 8 8 9 9 9 10 12 7 10 16 16 14 10 9 11 10 10 7 7 8 10 7 9 2 5 6 2 3 2 4 13 15 13
23 23 24 24 22 24 23 23 22 21 19 18 17 14 11 7 1 1 4 4 6 6 8 8 8 7 8 13 10 11 4 6 5 6 9 9 8 9 4 6 6 7 7 7 8 10 7 8 5 8 7 9 8 8 8 9 9 8 9 9 8 11 13 8 10 14 13 11 8 6 10 11 11 9 11 13 11 5 5 7 9 7 7 6 6 11 12 12
23 23 24 23 23 23 23 23 22 21 17 18 21 9 10 11 6 6 5 5 5 5 4 6 7 6 8 5 9 5 8 12 4 3 8 7 9 9 4 7 10 7 8 7 7 11 7 7 6 7 10 9 10 10 10 12 13 13 11 10 10 9 10 10 6 16 10 11 10 9 9 11 12 12 12 9 10 9 7 4 5 8 6 6 5 7 9 10
24 24 24 25 24 23 22 23 22 18 15 12 6 3 3 2 3 3 6 7 9 9 10 1 8 7 11 8 5 11 13 5 6 5 6 6 4 8 9 7 7 5 9 9 8 10 6 8 7 8 9 11 13 14 13 15 16 15 15 14 14 12 13 12 11 18 11 9 9 9 9 11 10 13 12 9 12 9 6 7 8 8 7 6 5 8 12 13
24 24 25 24 25 24 22 21 19 16 12 7 10 7 4 8 5 4 3 7 13 14 10 9 6 8 5 8 7 2 2 8 10 5 9 9 9 7 7 7 6 8 7 11 12 10 9 8 9 11 12 12 12 12 12 14 15 12 10 13 11 9 9 7 10 17 8 5 5 6 11 14 15 15 15 5 17 11 9 8 7 7 8 7 6 16 12 12
24 25 25 25 25 24 21 20 19 17 13 6 5 3 7 4 4 6 6 6 3 2 6 7 5 10 6 1 5 4 4 5 7 10 4 6 6 9 10 9 9 7 8 9 8 7 5 7 9 12 13 15 19 13 8 11 10 4 6 11 11 10 8 11 12 12 7 7 7 8 10 12 13 14 13 11 11 11 8 7 7 8 9 8 7 15 12 12
22 27 25 25 24 23 21 21 18 17 4 5 4 8 2 8 7 6 6 6 10 8 9 5 8 6 8 5 7 6 8 7 5 7 11 6 7 9 8 9 6 4 9 9 8 7 8 8 12 11 11 12 15 7 4 10 9 8 8 9 10 11 11 9 13 15 10 7 10 11 10 9 13 12 14 10 12 10 11 9 11 8 9 8 11 15 13 12
22 26 27 25 25 22 21 21 19 7 6 9 11 7 7 7 7 8 9 6 3 6 9 5 6 3 6 4 9 9 10 5 6 6 13 4 7 5 8 9 14 10 9 10 13 10 9 10 8 9 8 4 8 3 8 10 10 10 11 12 11 12 12 12 10 7 6 11 16 8 5 8 10 13 12 13 14 15 14 14 13 13 13 8 7 18 16 14
22 25 24 25 25 21 23 19 5 6 2 9 5 7 8 8 7 9 8 7 8 4 5 6 6 4 6 1 7 9 9 7 5 4 8 4 6 9 8 3 6 9 7 9 10 12 13 8 11 13 12 12 8 5 9 11 9 10 13 13 14 15 17 15 15 14 7 8 11 10 8 9 8 12 12 10 7 14 13 11 15 11 8 10 9 14 12 12
24 22 25 24 25 22 21 5 1 7 5 4 7 8 8 8 9 8 5 3 3 7 4 3 3 3 4 8 6 8 6 7 4 4 4 3 8 11 8 8 5 9 10 9 6 8 11 4 8 12 4 4 7 9 11 11 10 9 9 12 16 16 15 15 17 12 9 10 7 10 11 8 6 10 10 9 11 14 10 8 12 6 9 9 9 14 11 15
23 23 23 24 20 20 8 2 8 12 7 6 6 7 7 7 7 7 1 2 1 4 4 6 4 6 4 7 9 3 5 5 6 3 3 4 9 3 8 8 3 6 7 6 5 6 4 10 12 8 9 9 8 9 9 11 10 10 8 13 12 13 14 15 14 13 12 12 12 13 10 10 9 8 8 11 13 12 11 9 10 8 10 10 10 12 15 13
21 24 25 23 23 8 6 8 11 6 8 7 6 7 7 8 6 2 4 2 5 5 2 1 7 4 5 8 10 8 6 3 7 8 7 10 4 5 7 7 10 8 6 5 8 7 4 9 8 9 11 11 7 9 11 11 10 9 16 16 13 13 11 11 11 11 10 12 12 10 12 11 9 8 10 8 12 13 11 9 8 11 12 10 9 11 18 16
21 24 25 23 25 20 5 5 8 8 6 7 6 5 5 5 4 2 2 2 2 3 3 5 8 8 6 7 8 7 1 6 5 7 8 4 7 9 6 6 7 11 11 10 10 8 7 4 9 13 11 9 4 7 11 12 12 3 15 13 11 12 12 12 10 10 11 11 11 12 9 10 11 7 9 12 13 12 11 12 11 13 11 10 8 10 13 14
22 23 24 22 19 3 2 5 7 7 6 7 7 5 3 3 3 3 2 3 1 3 1 4 5 2 2 8 8 9 4 5 5 5 8 6 9 7 9 8 10 8 9 10 13 9 11 11 8 9 10 10 13 13 12 14 13 11 12 14 14 11 8 9 10 11 10 11 12 14 15 12 11 8 6 5 7 9 5 4 8 11 12 13 9 11 10 13
23 25 20 17 6 7 8 6 6 8 8 8 9 7 3 3 2 3 4 3 2 6 5 7 8 7 9 4 3 7 10 3 6 5 4 2 4 7 4 8 8 8 7 9 9 11 12 12 9 6 9 7 12 13 9 11 10 11 6 9 11 10 9 10 8 10 9 11 12 12 14 13 12 8 6 7 8 3 3 7 8 10 8 9 11 12 13 12
23 22 19 9 8 8 5 7 10 8 8 9 8 5 4 3 4 5 1 10 6 5 6 7 10 3 4 8 2 4 5 4 11 4 6 4 6 5 1 5 4 6 6 7 8 11 10 7 7 13 13 4 6 9 8 10 9 6 6 8 7 6 6 7 7 9 10 10 8 10 13 11 12 10 9 11 8 9 9 7 7 9 8 6 8 12 12 13
23 19 20 12 10 6 9 8 7 6 7 9 6 5 3 4 4 4 4 4 3 3 3 3 6 8 6 9 6 5 2 4 6 9 5 2 5 5 4 4 5 1 2 6 9 7 7 9 7 8 14 6 5 6 5 7 7 9 9 7 8 8 7 8 8 6 9 11 11 13 12 12 10 6 8 10 8 8 6 7 7 4 4 2 7 10 11 11
22 18 7 5 6 9 7 7 5 5 7 6 6 5 6 3 3 4 5 7 6 7 5 4 4 6 5 5 2 3 6 8 5 5 3 4 3 6 3 1 7 7 6 8 9 7 7 7 4 9 6 7 3 5 8 8 5 8 9 8 8 8 6 7 6 8 9 9 10 13 9 6 9 1 7 5 6 6 4 4 5 4 2 2 3 9 12 11
25 14 8 9 8 11 12 9 5 2 5 6 6 7 2 5 5 7 5 6 5 6 5 5 5 5 3 5 1 3 3 5 1 7 8 8 6 4 5 3 4 1 6 6 4 6 10 9 6 3 5 7 12 9 9 9 10 8 7 6 7 10 3 10 9 11 10 8 9 8 6 5 2 8 1 8 8 8 8 8 7 3 3 5 6 5 9 11
15 3 5 6 9 3 5 4 2 3 3 7 6 3 7 6 5 6 5 6 5 8 8 5 1 3 5 4 8 5 4 4 3 8 8 10 7 4 4 3 2 3 3 4 4 6 7 8 5 7 12 11 13 7 8 6 8 2 3 8 6 5 8 6 6 12 11 8 12 6 9 10 8 11 8 8 5 7 7 7 5 5 5 5 6 5 5 7
6 6 6 5 4 5 3 5 4 4 6 7 5 5 5 6 7 7 7 11 10 3 8 8 6 7 3 2 2 6 5 6 4 6 3 3 8 11 7 4 4 4 7 5 7 6 10 11 12 12 13 9 10 12 12 10 8 8 9 7 4 3 5 5 6 4 6 10 6 7 11 6 8 3 6 16 8 5 9 6 4 4 3 1 1 3 2 6
8 7 7 6 6 6 4 6 6 4 5 8 2 5 7 6 7 10 6 7 9 10 6 6 3 5 5 6 6 6 6 7 5 4 6 1 2 6 5 6 2 4 4 3 6 5 7 11 9 11 14 12 11 11 12 12 13 13 11 0 3 2 0 3 3 8 8 8 6 9 12 9 9 7 7 8 14 13 12 3 3 1 4 5 5 5 4 4
7 6 3 5 6 6 6 7 5 6 6 7 4 2 5 10 8 7 8 11 7 8 5 5 8 5 6 4 7 6 4 6 7 6 7 3 4 0 5 3 4 5 6 5 6 6 7 9 11 12 12 11 7 5 8 8 12 16 12 12 8 9 7 5 4 5 5 8 7 9 8 2 4 5 3 2 6 5 5 4 3 2 1 2 4 3 7 6
5 5 4 6 4 5 8 8 6 6 7 2 6 5 0 4 4 6 7 9 6 7 6 10 8 7 7 9 7 6 7 9 6 5 6 5 6 5 4 4 6 7 8 9 6 8 3 1 9 11 13 8 9 6 9 8 7 6 8 10 9 8 6 7 7 9 8 6 6 6 8 2 4 3 5 5 4 6 8 6 5 3 1 3 5 3 4 3
6 6 2 4 7 8 8 8 8 3 4 5 4 6 8 7 7 8 6 8 6 2 5 5 7 6 7 8 7 10 8 9 7 5 5 6 7 2 2 7 7 9 9 10 9 3 2 6 8 9 10 9 11 10 7 11 11 10 9 9 3 4 6 10 11 9 11 8 6 8 8 2 2 1 3 1 3 7 4 2 5 6 5 2 4 2 4 3
5 1 4 5 7 8 8 8 6 9 6 9 7 7 5 5 8 5 4 7 4 6 5 6 6 5 6 8 7 10 9 7 8 7 3 6 5 4 1 6 7 10 8 6 8 5 3 3 7 8 10 12 13 15 6 13 14 13 10 8 4 1 4 11 11 5 4 6 10 9 7 3 5 3 2 5 5 5 9 10 4 3 7 3 2 4 3 3
1 6 1 3 4 8 8 3 6 4 7 4 5 8 5 3 8 2 4 7 4 5 5 6 6 6 5 5 9 9 9 7 10 7 8 7 5 4 3 6 8 10 7 6 6 3 2 4 8 11 12 14 16 17 13 4 13 15 10 10 3 1 3 5 8 3 2 5 7 6 6 3 2 2 5 4 2 3 5 8 8 6 5 7 5 5 7 4
5 3 3 3 5 6 7 3 3 4 2 6 9 5 5 4 7 8 6 6 5 6 6 4 5 5 7 6 7 9 8 6 3 10 8 7 5 5 5 1 3 6 6 4 2 6 4 0 3 8 8 8 9 7 2 7 8 6 7 7 5 7 1 2 6 0 1 11 12 9 10 2 3 4 4 3 3 4 8 6 3 6 5 4 7 6 6 4
6 3 3 3 3 5 5 5 3 2 5 3 4 5 2 0 5 3 7 6 4 5 6 4 5 6 5 6 8 8 8 8 9 8 9 9 8 5 9 6 2 4 5 6 1 4 5 8 6 7 10 10 9 7 4 4 6 6 9 13 13 11 10 10 3 5 6 7 7 9 9 7 4 5 3 3 7 6 3 3 5 7 6 4 5 6 8 6
4 1 1 4 4 2 4 4 7 9 3 4 3 4 3 2 5 5 9 3 2 4 5 5 5 7 5 8 8 8 10 9 8 8 9 9 9 8 10 14 12 9 11 6 1 1 3 7 8 9 8 10 11 9 4 7 3 4 7 11 13 10 4 3 4 4 6 4 6 8 10 12 9 4 5 6 4 4 4 5 6 6 8 6 5 6 7 5
5 3 3 3 3 3 4 4 5 5 5 4 2 2 3 3 4 4 3 5 6 5 5 4 6 6 7 8 8 10 9 10 10 10 10 11 10 11 15 15 14 11 6 1 1 3 7 9 11 12 13 14 14 15 13 10 12 11 12 14 12 12 5 5 5 8 3 7 10 8 10 8 3 9 4 9 5 2 5 6 6 6 5 5 5 6 7 10
2 4 2 3 4 4 4 3 8 6 5 5 4 1 2 3 4 3 1 3 6 5 6 2 4 6 7 8 9 7 10 11 10 7 10 10 11 12 13 12 11 4 5 5 6 3 4 3 10 12 14 13 14 15 14 12 11 11 12 12 14 14 12 12 13 14 11 7 11 11 12 11 5 4 4 13 12 6 12 8 6 5 8 8 6 5 7 10
3 3 3 3 3 5 5 5 6 1 4 6 4 2 3 2 4 6 7 6 5 5 4 3 7 7 8 9 8 8 9 8 6 10 10 11 12 12 11 11 8 2 2 2 4 2 1 6 10 10 13 14 14 13 9 13 13 11 12 14 14 14 15 16 15 13 13 13 13 15 17 16 11 7 7 5 7 2 7 14 7 9 8 4 4 3 8 9
6 6 3 2 2 4 2 4 4 7 4 4 0 3 2 2 4 7 7 5 4 5 5 7 8 9 9 9 8 8 9 10 11 12 11 12 13 10 10 9 9 10 9 6 2 2 2 4 10 12 12 14 13 13 10 12 12 11 12 13 13 13 15 16 16 13 11 17 19 17 13 13 5 2 1 2 4 7 10 12 10 6 6 10 10 10 11 11
5 4 3 6 4 4 1 4 5 8 1 2 1 5 5 6 3 1 5 4 3 5 5 6 8 8 8 9 8 9 9 11 12 14 14 12 12 11 10 9 11 12 12 11 6 3 4 6 9 9 9 11 11 12 9 11 12 12 12 14 15 16 14 7 8 4 9 9 9 12 12 7 6 10 10 8 6 6 9 8 4 4 3 6 8 9 12 13
7 3 4 5 4 3 5 3 4 5 2 5 6 4 4 3 1 5 4 4 4 1 3 7 7 8 8 9 9 9 12 13 15 15 14 14 14 14 14 15 13 11 11 11 10 10 3 3 6 7 10 10 11 12 13 12 11 11 10 1 4 4 6 6 10 5 4 3 4 6 7 1 4 3 8 10 9 7 6 10 12 8 3 5 6 3 7 11
Wind_Direction
352 351 348 346 346 345 344 342 341 338 334 330 325 322 317 313 308 304 301 297 295 296 298 299 302 304 305 308 311 316 313 297 294 254 222 237 109 145 108 127 146 147 150 227 226 237 198 216 217 221 222 224 221 238 245 232 245 232 224 240 254 259 256 253 245 235 22 331 47 55 42 7 261 125 50 25 236 228 254 237 304 284 258 224 31 79 70 73
352 350 349 346 344 343 343 342 340 339 336 333 328 323 317 312 307 302 297 295 297 295 295 297 297 301 306 306 311 312 314 290 271 260 257 131 138 140 135 139 156 160 185 224 226 207 216 199 217 207 219 218 213 230 214 233 213 236 234 238 247 242 249 255 301 10 29 43 343 75 236 257 279 332 96 296 329 334 288 263 230 210 252 68 82 72 73 72
351 350 348 346 343 342 341 341 339 338 337 334 330 324 318 310 306 303 300 296 295 295 293 294 296 298 303 307 305 305 291 289 262 254 206 138 141 142 149 153 163 169 199 221 208 220 222 195 205 204 209 234 200 224 200 227 190 217 253 232 231 256 267 323 9 6 354 20 296 11 46 348 320 301 33 261 360 282 241 249 220 305 36 75 82 72 71 72
351 349 347 345 343 341 340 339 339 338 337 335 332 326 319 313 306 302 298 297 294 293 293 292 294 299 300 303 312 308 284 273 270 248 120 169 145 141 145 157 169 184 223 241 271 267 236 259 202 206 213 230 202 234 194 217 190 185 225 243 246 230 318 245 183 256 21 332 295 290 11 299 239 240 246 311 281 241 263 57 346 4 5 53 85 87 85 78
350 348 345 343 342 340 338 338 338 337 336 335 332 328 321 313 307 302 298 294 292 290 291 293 294 297 302 307 301 281 295 278 83 101 138 140 141 134 143 158 177 200 220 244 259 263 266 248 217 203 239 220 229 195 226 213 217 243 221 239 258 294 267 14 36 12 330 30 291 313 301 257 58 25 270 261 252 271 10 2 42 8 4 4 78 83 80 78
348 346 344 342 341 339 337 336 336 336 334 333 330 329 323 315 309 301 296 291 287 287 287 290 294 297 304 305 294 277 267 4 120 123 132 139 128 133 144 155 190 249 243 249 252 211 230 226 221 212 215 251 241 215 201 246 184 244 228 246 248 258 295 35 22 185 74 256 223 238 228 261 308 309 296 257 258 309 344 342 36 14 5 77 69 77 81 76
345 343 342 341 339 338 337 336 335 334 332 331 331 328 324 317 309 302 295 291 285 284 286 288 292 302 309 289 257 247 252 276 136 129 127 149 123 137 138 173 187 230 239 253 245 226 200 235 216 205 229 237 248 222 226 218 210 237 254 227 234 263 250 22 272 78 233 258 280 277 285 313 291 261 124 283 332 337 299 24 357 10 54 80 83 80 81 86
342 341 340 340 338 337 337 336 335 332 331 330 329 328 324 318 310 303 294 288 284 281 284 286 293 304 330 294 264 235 234 238 118 142 149 136 161 139 163 199 204 221 236 247 227 230 204 238 205 220 237 241 223 221 221 218 215 220 245 254 276 220 229 253 168 56 219 235 255 279 280 271 256 269 297 275 299 286 275 57 346 247 87 88 89 91 91 92
340 339 338 338 337 336 336 336 334 332 330 329 328 326 322 317 308 299 293 286 281 279 278 282 288 301 242 282 278 290 343 97 137 149 157 163 155 169 187 193 207 225 240 240 250 250 217 222 246 241 243 219 240 223 180 196 212 221 246 256 261 237 216 249 253 240 268 264 225 240 241 244 254 263 256 265 264 250 119 276 251 68 258 101 97 93 94 91
337 337 337 337 337 336 336 335 333 331 329 328 327 324 321 314 307 298 289 283 279 277 274 275 287 280 275 268 278 274 126 128 128 154 166 153 151 176 201 221 179 226 237 233 236 244 239 227 250 225 267 281 304 238 166 193 265 193 233 253 278 258 219 232 246 228 211 234 248 239 236 248 244 231 253 199 278 123 330 241 253 115 27 84 95 106 103 95
336 336 336 336 336 335 335 334 332 330 328 326 325 322 318 313 306 297 286 281 277 273 272 272 306 285 283 276 280 293 124 138 151 150 156 153 157 184 195 223 235 227 247 219 233 228 311 286 319 265 252 312 207 235 213 225 233 278 265 246 220 252 267 256 207 249 265 233 222 244 263 271 269 232 268 236 174 74 323 309 267 226 134 106 94 106 107 103
335 335 335 335 335 335 334 332 330 328 327 325 323 320 316 312 304 293 281 272 270 264 265 265 250 269 278 273 259 276 201 121 170 150 162 159 188 193 195 236 204 234 248 220 227 306 218 287 336 249 255 12 263 313 227 237 15 245 253 268 268 237 248 227 245 223 219 251 244 233 259 252 243 236 222 213 143 150 233 291 315 289 164 105 107 109 108 103
334 335 334 333 334 334 332 330 329 327 327 324 321 318 315 310 301 294 273 272 256 254 257 271 266 243 279 283 251 154 222 127 161 159 172 178 195 220 195 246 229 267 290 281 300 199 256 274 263 274 279 269 283 298 16 299 203 247 275 272 263 247 229 220 213 239 223 235 211 114 253 241 228 226 218 214 131 129 224 242 218 224 110 102 92 93 103 110
334 333 333 333 333 333 331 329 327 326 325 323 320 315 314 307 299 289 268 241 278 272 261 271 266 266 279 260 281 171 91 240 146 165 195 183 220 194 226 208 241 255 257 283 306 355 314 225 279 282 302 290 226 57 260 220 272 250 247 230 256 259 247 207 202 205 233 161 193 229 256 254 246 190 194 89 173 286 276 220 192 300 89 121 111 98 111 118
333 333 332 332 332 331 330 329 328 325 325 322 317 314 309 305 301 290 249 246 246 259 277 284 235 277 230 259 255 97 2 319 167 202 201 197 222 205 209 176 230 236 256 240 268 231 257 289 277 263 253 239 271 291 253 249 215 227 254 236 232 249 250 218 175 187 218 172 209 227 246 257 248 193 135 152 181 232 257 211 130 90 45 108 116 116 113 114
333 333 330 332 332 331 329 329 328 326 323 320 316 312 303 297 298 275 227 245 336 233 239 258 232 222 290 279 52 107 192 217 200 207 186 235 194 240 178 200 213 214 236 249 263 284 243 241 245 246 255 236 239 263 282 228 226 219 235 256 247 233 262 139 171 192 208 208 182 225 268 289 288 156 146 140 194 157 214 98 115 218 210 111 112 109 116 117
333 333 331 331 331 329 329 328 327 325 321 317 314 302 298 291 313 259 250 252 245 199 232 258 271 204 256 82 193 238 198 211 205 184 195 219 227 229 188 187 203 231 192 253 225 245 257 244 227 250 262 284 266 233 248 249 245 225 205 247 261 260 192 207 174 202 192 214 201 197 246 254 97 104 161 172 209 173 223 158 165 219 45 116 131 126 123 127
333 333 331 330 330 329 327 326 326 324 320 315 305 298 302 321 272 251 199 222 230 209 230 253 265 292 239 257 235 220 170 196 204 186 211 172 252 268 339 214 219 243 201 243 202 247 202 236 202 253 224 220 246 247 232 238 227 239 208 217 246 255 270 277 177 168 208 158 262 250 238 257 260 250 190 176 175 204 186 197 175 191 197 183 213 131 132 133
333 333 331 330 328 328 325 324 322 324 321 312 289 288 263 263 240 248 249 172 205 191 222 202 209 207 360 164 250 214 189 116 226 160 185 220 184 283 246 275 267 205 222 231 182 228 176 244 220 238 247 223 219 234 245 249 252 240 226 219 223 262 235 233 209 150 186 171 196 235 253 252 240 239 271 157 161 177 204 209 162 160 195 163 208 120 130 131
333 333 331 330 327 326 324 322 320 318 330 322 293 203 193 252 190 182 228 236 237 265 309 94 201 271 249 150 148 51 54 77 231 219 194 218 220 196 247 226 237 263 258 244 180 217 173 226 220 230 236 246 237 221 234 251 258 276 312 312 295 240 243 230 202 160 184 233 247 267 255 252 267 270 247 193 152 180 195 245 204 192 206 187 191 119 132 124
332 332 331 329 327 324 321 320 316 317 326 295 286 286 319 349 5 25 322 243 227 242 259 280 210 230 229 310 53 217 69 175 252 154 232 140 233 225 194 205 243 233 230 248 259 177 201 223 241 249 239 239 254 237 227 257 265 279 293 302 286 289 285 305 306 160 169 183 168 222 254 261 269 268 275 195 152 182 193 223 221 192 224 163 168 119 139 129
333 333 331 329 325 324 317 316 316 316 304 243 266 274 266 15 350 347 305 312 314 208 231 239 282 261 307 329 27 339 278 251 191 225 137 179 204 232 139 240 203 239 212 243 253 202 190 240 255 258 270 268 258 235 359 316 293 307 270 261 267 273 286 284 279 268 210 159 211 207 265 276 258 245 249 256 247 168 180 198 225 192 222 163 155 122 131 139
333 333 331 328 326 320 319 311 317 314 290 214 220 257 341 345 345 346 304 285 302 310 295 266 206 234 235 184 227 173 253 236 205 232 162 180 263 242 220 193 226 241 271 229 244 247 253 250 231 235 239 241 254 273 300 290 283 271 257 244 259 270 263 231 226 251 260 260 291 288 286 272 272 259 241 238 248 246 172 197 235 191 218 185 151 137 138 143
332 333 330 327 324 322 315 319 303 279 228 240 257 14 11 345 341 326 321 281 246 251 264 170 295 200 174 258 170 204 224 189 270 213 120 189 253 208 243 266 299 264 212 233 226 247 263 265 310 305 312 319 302 30 240 256 266 256 255 266 263 251 249 270 297 250 268 276 291 269 212 253 267 275 270 215 210 242 201 190 211 218 185 192 168 136 145 154
330 330 328 325 326 323 318 319 291 232 210 245 33 21 348 342 2 341 314 8 295 200 123 173 248 110 60 337 139 216 197 271 235 72 99 272 248 263 269 295 259 291 292 254 266 242 237 250 291 266 263 246 235 277 275 262 254 262 249 244 255 270 277 276 264 261 237 232 207 243 254 253 237 255 254 273 258 231 216 204 212 195 171 180 167 143 146 148
329 326 327 327 326 328 307 311 1 360 296 18 12 10 333 340 18 334 309 127 261 106 238 96 303 105 331 181 164 223 178 221 168 192 181 195 274 302 352 263 222 256 272 297 313 293 291 251 228 276 297 321 282 267 277 258 254 259 261 236 229 239 265 278 286 285 258 260 244 237 251 269 267 249 263 250 249 263 229 202 254 159 191 200 179 142 146 156
328 327 327 327 326 337 323 351 346 289 288 46 3 338 355 332 7 346 99 75 17 13 320 95 215 95 253 152 180 192 216 184 178 147 219 153 245 179 263 275 230 237 278 285 260 271 276 261 274 296 292 256 270 273 243 264 278 260 251 271 298 301 251 233 247 255 270 270 275 273 257 262 260 263 239 256 254 245 252 213 231 242 224 221 184 165 149 160
327 329 327 326 320 341 280 303 305 355 16 7 340 351 331 17 310 12 261 209 58 254 33 118 44 128 237 140 219 177 97 105 214 154 287 102 232 196 239 277 288 301 282 265 267 269 280 304 271 270 274 267 251 262 273 241 240 262 291 298 283 273 293 292 271 271 272 287 287 286 274 267 266 262 267 231 246 241 236 232 215 234 239 233 190 173 154 179
328 329 328 323 322 300 232 243 299 357 354 352 355 336 356 343 278 264 290 72 68 360 113 60 5 262 226 149 217 239 231 155 235 109 252 254 249 302 248 233 319 311 295 287 284 278 250 252 314 337 324 307 327 231 251 289 266 288 323 295 289 290 273 282 296 291 278 262 261 257 255 265 262 247 244 243 248 257 231 214 214 231 222 232 200 194 178 175
327 328 325 329 320 220 179 217 255 16 333 360 344 330 310 321 17 263 193 63 6 134 289 42 328 359 204 168 186 188 243 198 314 147 176 260 180 198 251 289 276 263 272 276 272 284 297 293 278 293 302 309 302 303 328 306 283 300 323 313 263 260 304 304 273 265 282 261 262 255 264 266 272 255 262 330 303 276 245 208 210 227 219 200 196 187 196 185
325 324 320 329 296 345 320 256 31 2 355 355 340 305 277 193 257 288 62 21 91 359 309 138 222 90 277 273 121 15 304 7 219 270 256 197 220 175 288 255 221 251 257 255 272 295 277 256 221 230 233 250 280 286 283 297 299 308 318 320 0 335 303 277 286 280 263 261 266 279 277 267 262 256 253 275 238 9 302 256 247 248 247 211 181 186 193 194
323 317 314 318 274 323 295 335 351 348 354 338 317 309 281 286 188 35 351 31 278 13 330 344 330 126 266 129 129 204 255 25 343 302 283 179 242 227 179 279 26 314 324 335 327 330 321 298 319 329 316 242 278 276 276 267 251 236 274 266 269 280 274 271 254 241 237 254 263 268 274 261 249 264 257 224 236 196 205 229 247 248 214 214 178 182 187 194
319 315 307 274 254 249 261 307 325 331 326 318 307 271 279 283 52 29 34 70 85 167 30 254 318 327 344 45 339 290 257 177 195 287 314 297 283 248 124 255 5 183 250 290 296 301 291 295 287 277 280 221 242 276 259 254 254 251 228 247 248 254 253 264 265 269 274 266 269 274 308 290 290 295 347 304 270 231 207 174 260 5 13 257 181 188 188 174
313 314 306 279 254 248 281 293 282 297 317 315 280 289 260 25 62 28 36 25 10 359 2 335 344 334 323 318 143 299 297 289 255 229 218 278 256 273 270 86 342 295 264 278 266 274 290 270 286 329 320 27 238 258 278 282 251 238 252 239 247 242 252 261 253 267 272 291 298 297 308 260 266 6 268 12 12 19 352 86 162 230 135 288 246 188 193 167
311 295 250 268 257 257 253 254 265 4 299 300 296 272 356 48 18 14 16 360 7 340 355 326 308 320 17 351 254 218 284 280 20 294 280 268 265 243 272 233 45 342 333 327 310 303 280 281 277 253 265 270 284 248 216 244 267 259 240 244 279 269 311 272 285 280 277 288 286 270 260 306 245 178 143 279 262 205 209 207 258 226 178 199 236 233 196 184
311 250 203 246 252 277 265 274 293 259 308 299 309 21 54 30 22 359 24 293 9 345 335 325 59 327 44 19 289 332 144 302 338 297 345 330 320 304 282 247 193 132 275 267 308 291 299 273 337 302 285 251 228 258 276 278 269 128 276 263 264 323 275 279 273 272 284 268 259 253 266 255 277 299 272 273 230 294 260 272 216 218 195 206 209 233 207 229
302 279 218 281 316 311 334 287 321 342 286 284 290 53 19 74 1 12 14 347 338 348 337 325 49 328 2 7 286 356 20 313 353 344 307 348 346 322 314 257 259 260 259 310 304 281 287 284 289 292 269 267 284 283 274 258 250 269 242 236 266 23 311 294 273 288 269 260 265 255 256 286 280 259 32 351 326 234 288 282 207 173 89 20 2 298 221 232
309 313 315 297 353 311 315 349 333 294 280 281 32 37 22 54 25 31 357 335 3 6 332 12 50 347 14 343 9 356 357 322 342 280 300 244 241 255 314 316 30 277 318 288 283 293 295 283 278 263 256 264 263 257 262 265 269 268 269 265 236 196 331 297 292 253 254 249 265 257 268 248 223 212 51 350 315 337 325 46 330 148 192 252 215 206 273 238
279 293 274 11 316 8 329 355 312 280 301 297 91 146 35 53 71 27 25 331 40 328 0 16 330 49 344 342 348 338 328 312 358 348 331 68 284 308 306 354 305 318 290 297 294 344 339 290 283 280 275 272 273 277 266 253 221 230 248 254 227 243 214 150 205 287 283 271 270 266 264 290 294 79 88 7 284 243 254 254 326 315 173 182 307 234 194 228
261 266 109 315 347 328 356 311 286 282 253 322 52 78 212 70 28 87 60 344 36 343 44 334 10 340 354 341 338 339 341 328 343 335 311 4 332 60 321 288 319 315 311 309 300 79 279 220 282 287 294 296 254 224 251 266 275 236 228 247 238 231 238 241 226 219 228 250 259 275 276 263 327 59 134 235 171 54 10 348 282 298 67 198 231 332 340 330
307 290 62 294 337 351 311 304 269 256 99 118 73 55 47 23 344 40 8 33 12 99 0 350 351 1 352 334 350 340 336 332 325 323 350 350 345 319 67 335 333 313 321 303 287 313 287 262 267 299 292 268 263 262 300 287 265 245 253 257 303 349 297 240 237 216 228 225 240 256 263 252 238 215 64 2 100 212 246 313 356 311 303 21 10 302 312 288
283 315 56 335 350 334 330 312 30 18 25 51 50 24 64 328 303 56 353 31 47 338 30 336 10 345 21 338 347 324 327 331 320 319 44 310 15 344 342 304 321 328 319 308 318 47 356 308 275 271 261 269 279 282 305 287 297 284 258 256 133 130 218 257 254 240 322 280 283 276 293 275 123 228 184 139 305 13 18 346 330 325 302 311 317 280 211 266
262 60 309 356 17 312 332 297 70 38 33 62 120 87 2 41 343 63 346 21 12 10 4 357 351 339 38 359 337 313 333 318 323 332 331 340 333 115 340 334 343 303 314 301 326 85 263 260 269 266 274 272 268 268 254 287 306 273 307 291 66 252 219 278 294 21 203 270 272 257 239 222 79 174 122 128 95 143 203 236 251 257 326 340 314 291 288 251
17 42 92 78 283 275 271 30 67 57 47 34 36 70 64 5 348 0 19 58 353 360 346 349 332 0 330 0 314 316 334 313 350 320 321 336 345 131 49 78 15 316 318 31 348 27 310 236 283 297 296 285 275 222 27 343 352 342 321 320 320 291 327 17 314 83 333 243 248 267 259 196 196 109 102 139 248 15 21 21 350 282 284 261 262 274 275 272
310 282 90 49 299 312 29 10 14 120 92 57 33 33 353 9 46 355 330 25 342 11 318 341 347 318 325 343 312 309 320 306 309 319 307 313 313 116 165 190 288 276 284 95 304 342 285 280 292 285 297 302 299 301 329 349 344 320 308 317 317 332 358 4 349 2 285 283 280 256 261 272 138 243 223 215 215 205 192 240 303 297 272 287 325 339 337 307
304 22 61 124 343 49 52 10 12 346 122 140 182 54 353 6 115 107 348 29 317 21 338 323 326 339 344 335 330 328 318 313 309 320 313 312 316 312 334 323 320 315 100 122 245 295 276 289 272 272 274 280 286 298 211 180 212 274 296 280 281 284 288 254 271 255 250 295 291 277 310 314 285 232 341 315 275 262 263 250 250 279 305 330 326 340 309 308
303 11 356 357 275 123 86 20 43 11 31 355 343 30 7 349 14 3 76 299 65 24 328 351 335 335 349 332 332 320 310 315 323 314 308 311 318 317 325 330 318 71 98 290 45 294 265 266 272 278 276 274 288 285 285 271 274 268 264 272 280 274 244 247 235 246 349 334 277 252 218 243 268 344 320 283 306 276 216 234 239 249 257 275 302 283 285 287
316 68 353 45 320 21 347 42 339 69 7 308 88 307 345 355 353 319 12 254 357 39 340 11 294 341 329 334 323 308 322 315 314 312 331 317 322 323 321 314 314 123 315 357 9 311 318 298 289 293 282 284 280 283 282 267 259 264 266 271 273 270 267 248 243 245 237 229 256 288 292 284 282 190 267 294 296 330 325 297 280 281 285 273 224 241 279 274
17 40 58 322 304 56 5 356 328 311 75 341 94 252 41 358 323 325 342 341 5 354 350 326 318 336 336 333 319 310 317 322 320 326 313 322 318 321 305 307 300 186 301 332 9 101 340 257 277 291 303 299 291 283 282 288 267 259 263 267 271 269 263 259 258 256 252 255 266 270 271 278 291 321 311 278 221 251 258 271 265 260 259 314 342 301 267 259
21 343 38 297 122 69 67 312 263 262 216 104 260 61 329 291 344 358 320 5 15 302 348 319 326 341 333 314 312 305 315 315 313 308 319 308 303 294 298 297 305 311 321 310 303 133 236 297 312 304 301 298 296 296 288 256 262 282 271 263 265 272 270 257 249 247 253 254 247 263 292 294 319 33 244 334 275 232 253 269 283 326 26 24 13 3 334 315
337 6 325 326 300 83 237 239 273 292 45 135 222 88 289 10 4 73 283 321 307 359 340 320 337 327 309 307 302 303 319 310 305 294 295 290 283 290 292 290 296 295 302 304 291 272 172 280 298 301 299 293 297 306 315 327 305 281 274 267 266 267 266 304 295 344 300 319 335 324 288 279 357 341 345 322 291 296 286 291 299 80 48 58 45 19 339 321
321 176 241 298 308 120 267 201 232 258 68 38 24 35 353 29 278 1 347 301 53 281 279 339 340 327 308 310 316 319 318 310 301 300 292 289 282 277 265 269 280 287 291 291 298 293 262 288 294 313 305 286 301 310 313 293 290 279 264 195 11 324 287 314 296 287 234 237 282 292 281 234 239 339 337 318 319 1 4 11 350 332 68 82 79 38 303 320